New Paris, IN

8:36 AM EST on January 23, 2017 (GMT -0500)
Goshen Municipal

Weather History for KGSH - November, 2013

Change the Weather History Date:

Friday, November 8, 2013

  Actual Average Record
Temperature  
Mean Temperature 38 °F -  
Max Temperature 46 °F 51 °F 69 °F (1975)
Min Temperature 30 °F 35 °F 14 °F (1991)
Degree Days  
Heating Degree Days 27    
Moisture  
Dew Point 30 °F    
Average Humidity 71    
Maximum Humidity 92    
Minimum Humidity 50    
Precipitation  
Precipitation 0.00 in - - ()
Sea Level Pressure  
Sea Level Pressure 30.25 in    
Wind  
Wind Speed 8 mph (SW)    
Max Wind Speed 13 mph    
Max Gust Speed -    
Visibility 9 miles    
Events Snow    
Averages and records for this station are not official NWS values.
T = Trace of Precipitation, MM = Missing Value Source: NWS Daily Summary

Daily Weather History Graph

Daily Weather History Graph

Search for Another Location

Airport or City:

Trip Planner

Search our weather history database for the weather conditions in past years. The results will help you decide how hot, cold, wet, or windy it might be!

Date:

Astronomy

Nov. 08, 2013 Rise Set
Actual Time 7:23 AM EST 5:29 PM EST
Civil Twilight 6:54 AM EST 5:58 PM EST
Nautical Twilight 6:21 AM EST 6:32 PM EST
Astronomical Twilight 5:48 AM EST 7:04 PM EST
Moon 12:19 PM EST (11/8) 10:50 PM EST (11/8)
Length of Visible Light 11h 04m
Length of Day
10h 05m
Waxing Crescent, 33% of the Moon is Illuminated
Nov 8
Waxing Crescent
Nov 10
First Quarter
Nov 17
Full
Nov 25
Last Quarter
Dec 2
New

Hourly Weather History & Observations

Time (EST) Temp. Windchill Dew Point Humidity Pressure Visibility Wind Dir Wind Speed Gust Speed Precip Events Conditions
12:53 AM 34.0 °F 26.0 °F 30.9 °F 89% 30.20 in 7.0 mi WSW 10.4 mph - N/A   Partly Cloudy
1:53 AM 35.1 °F 27.9 °F 32.0 °F 89% 30.21 in 7.0 mi West 9.2 mph - 0.00 in Snow Light Snow
2:53 AM 34.0 °F 27.2 °F 30.9 °F 89% 30.23 in 8.0 mi WNW 8.1 mph - 0.00 in Snow Light Snow
3:53 AM 32.0 °F 26.4 °F 28.9 °F 88% 30.23 in 7.0 mi WSW 5.8 mph - 0.00 in   Clear
4:53 AM 30.9 °F 24.3 °F 28.9 °F 92% 30.24 in 7.0 mi WSW 6.9 mph - N/A   Clear
5:53 AM 30.9 °F 24.3 °F 28.0 °F 89% 30.27 in 6.0 mi WSW 6.9 mph - N/A   Clear
6:53 AM 30.0 °F 24.1 °F 28.0 °F 92% 30.28 in 6.0 mi WSW 5.8 mph - N/A   Clear
7:53 AM 30.9 °F 23.5 °F 28.0 °F 89% 30.31 in 5.0 mi WSW 8.1 mph - N/A   Clear
8:53 AM 34.0 °F 31.0 °F 30.9 °F 89% 30.32 in 8.0 mi WNW 3.5 mph - N/A   Clear
9:53 AM 39.0 °F 32.3 °F 30.9 °F 73% 30.34 in 10.0 mi West 10.4 mph - N/A   Clear
10:53 AM 41.0 °F 37.1 °F 30.0 °F 65% 30.34 in 10.0 mi WSW 5.8 mph - N/A   Partly Cloudy
11:53 AM 42.1 °F 40.2 °F 28.9 °F 60% 30.33 in 10.0 mi SSW 3.5 mph - N/A   Partly Cloudy
12:53 PM 43.0 °F 38.8 °F 28.9 °F 58% 30.30 in 10.0 mi Variable 6.9 mph - N/A   Clear
1:53 PM 45.0 °F 41.2 °F 28.9 °F 53% 30.28 in 10.0 mi WSW 6.9 mph - N/A   Clear
2:53 PM 46.0 °F 43.1 °F 28.0 °F 50% 30.26 in 10.0 mi West 5.8 mph - N/A   Clear
3:53 PM 46.0 °F 41.0 °F 28.9 °F 51% 30.25 in 10.0 mi SW 10.4 mph - N/A   Clear
4:53 PM 45.0 °F 41.8 °F 30.9 °F 58% 30.24 in 10.0 mi SSW 5.8 mph - N/A   Clear
5:53 PM 43.0 °F 38.8 °F 30.9 °F 62% 30.24 in 10.0 mi SSW 6.9 mph - N/A   Clear
6:53 PM 39.9 °F 35.1 °F 30.9 °F 70% 30.23 in 10.0 mi South 6.9 mph - N/A   Clear
7:53 PM 43.0 °F 38.8 °F 30.9 °F 62% 30.21 in 10.0 mi South 6.9 mph - N/A   Overcast
8:53 PM 43.0 °F 38.2 °F 32.0 °F 65% 30.18 in 10.0 mi SSE 8.1 mph - N/A   Clear
9:53 PM 43.0 °F 37.7 °F 30.9 °F 62% 30.17 in 10.0 mi SSE 9.2 mph - N/A   Clear
10:53 PM 43.0 °F 36.4 °F 30.0 °F 60% 30.15 in 10.0 mi SSE 12.7 mph - N/A   Clear
11:53 PM 44.1 °F 38.6 °F 30.0 °F 58% 30.13 in 10.0 mi South 10.4 mph - N/A   Mostly Cloudy